Location: 22
(39.7117°N, 89.5929°W)
Time: 09:36:34
(UTC-05:00)

S-56A Canister/Altair - Pass Details

Date: 10 February 2023
Orbit: 638 x 2493 km, 38.9° (Epoch: 25 March)

Event Time Altitude Azimuth Distance (km) Brightness Sun altitude
Rises 09:51:26 0° 257° (WSW) 3,064 10.4 26.8°
Reaches altitude 10° 09:53:52 10° 256° (WSW) 2,064 9.6 27.1°
Maximum altitude 09:58:23 75° 171° (S) 663 8.0 27.6°
Drops below altitude 10° 10:03:04 10° 87° (E) 2,140 10.4 28.2°
Sets 10:05:37 0° 85° (E) 3,189 11.1 28.4°
